Time,TemperatureF,DewpointF,PressureIn,WindDirection,WindDirectionDegrees,WindSpeedMPH,WindSpeedGustMPH,Humidity,HourlyPrecipIn,Conditions,Clouds,dailyrainin,SoftwareType,DateUTC
2013-08-25 00:00:00,72.3,70.5,30.27,NE,42,8.0,15.0,94,0.00,,---,0.00,VWS V14.00,2013-08-25 04:00:00,
2013-08-25 00:01:00,72.4,70.3,30.27,NE,40,12.0,12.0,93,0.00,,---,0.00,VWS V14.00,2013-08-25 04:01:00,
2013-08-25 00:02:00,72.3,70.2,30.27,NE,38,12.0,13.0,93,0.00,,---,0.00,VWS V14.00,2013-08-25 04:02:00,
2013-08-25 00:07:00,72.3,70.5,30.27,NE,43,7.0,13.0,94,0.00,,---,0.00,VWS V14.00,2013-08-25 04:07:00,
2013-08-25 00:12:00,72.3,70.2,30.27,NE,37,10.0,13.0,93,0.00,,---,0.00,VWS V14.00,2013-08-25 04:12:00,
2013-08-25 00:17:00,72.2,69.8,30.27,NNE,31,11.0,13.0,92,0.00,,---,0.00,VWS V14.00,2013-08-25 04:17:00,
2013-08-25 00:22:00,72.1,70.0,30.27,NNE,31,10.0,13.0,93,0.00,,---,0.00,VWS V14.00,2013-08-25 04:22:00,
2013-08-25 00:27:00,72.1,69.7,30.27,NE,35,9.0,13.0,92,0.00,,---,0.00,VWS V14.00,2013-08-25 04:27:00,
2013-08-25 00:30:00,72.2,69.8,30.28,NE,45,9.0,15.0,92,0.00,,---,0.00,VWS V14.01,2013-08-25 04:30:00,
2013-08-25 00:32:00,72.0,69.2,30.28,NNE,33,13.0,13.0,91,0.00,,---,0.00,VWS V14.00,2013-08-25 04:32:00,
2013-08-25 00:37:00,72.0,68.9,30.28,NE,35,15.0,16.0,90,0.00,,---,0.00,VWS V14.00,2013-08-25 04:37:00,
2013-08-25 00:42:00,72.0,68.9,30.27,NNE,29,12.0,16.0,90,0.00,,---,0.00,VWS V14.00,2013-08-25 04:42:00,
2013-08-25 00:47:00,71.9,68.8,30.28,NE,39,9.0,16.0,90,0.00,,---,0.00,VWS V14.00,2013-08-25 04:47:00,
2013-08-25 00:52:00,71.8,68.4,30.27,NE,40,13.0,16.0,89,0.00,,---,0.00,VWS V14.00,2013-08-25 04:52:00,
2013-08-25 00:57:00,71.8,68.7,30.27,NE,37,15.0,17.0,90,0.00,,---,0.00,VWS V14.00,2013-08-25 04:57:00,
2013-08-25 01:00:00,71.9,68.5,30.27,NE,45,11.0,17.0,89,0.00,,---,0.00,VWS V14.01,2013-08-25 05:00:00,
2013-08-25 01:02:00,71.7,68.3,30.27,NE,35,12.0,16.0,89,0.00,,---,0.00,VWS V14.00,2013-08-25 05:02:00,
2013-08-25 01:07:00,71.7,68.3,30.27,NNE,32,12.0,16.0,89,0.00,,---,0.00,VWS V14.00,2013-08-25 05:07:00,
2013-08-25 01:12:00,71.7,68.3,30.27,NE,34,10.0,17.0,89,0.00,,---,0.00,VWS V14.00,2013-08-25 05:12:00,
2013-08-25 01:17:00,71.7,68.3,30.27,NNE,29,8.0,17.0,89,0.00,,---,0.00,VWS V14.00,2013-08-25 05:17:00,
2013-08-25 01:22:00,71.6,68.2,30.27,NE,45,11.0,17.0,89,0.00,,---,0.00,VWS V14.00,2013-08-25 05:22:00,
2013-08-25 01:27:00,71.6,68.2,30.27,NNE,32,11.0,17.0,89,0.00,,---,0.00,VWS V14.00,2013-08-25 05:27:00,
2013-08-25 01:30:00,71.7,68.3,30.27,NE,45,11.0,17.0,89,0.00,,---,0.00,VWS V14.01,2013-08-25 05:30:00,
2013-08-25 01:32:00,71.6,68.2,30.27,NNE,31,9.0,18.0,89,0.00,,---,0.00,VWS V14.00,2013-08-25 05:32:00,
2013-08-25 01:37:00,71.6,68.2,30.27,NE,36,11.0,18.0,89,0.00,,---,0.00,VWS V14.00,2013-08-25 05:37:00,
2013-08-25 01:42:00,71.7,68.6,30.28,NE,42,8.0,18.0,90,0.00,,---,0.00,VWS V14.00,2013-08-25 05:42:00,
2013-08-25 01:47:00,71.6,68.5,30.27,NE,37,12.0,18.0,90,0.00,,---,0.00,VWS V14.00,2013-08-25 05:47:00,
2013-08-25 01:52:00,71.6,68.2,30.27,NE,40,10.0,18.0,89,0.00,,---,0.00,VWS V14.00,2013-08-25 05:52:00,
2013-08-25 01:57:00,71.5,68.1,30.27,NNE,29,9.0,18.0,89,0.00,,---,0.00,VWS V14.00,2013-08-25 05:57:00,
2013-08-25 02:00:00,71.6,68.5,30.27,NE,45,10.0,18.0,90,0.00,,---,0.00,VWS V14.01,2013-08-25 06:00:00,
2013-08-25 02:02:00,71.5,68.1,30.27,NE,36,10.0,14.0,89,0.00,,---,0.00,VWS V14.00,2013-08-25 06:02:00,
2013-08-25 02:07:00,71.5,68.1,30.27,NE,38,11.0,15.0,89,0.00,,---,0.00,VWS V14.00,2013-08-25 06:07:00,
2013-08-25 02:12:00,71.4,68.0,30.27,NE,36,10.0,15.0,89,0.00,,---,0.00,VWS V14.00,2013-08-25 06:12:00,
2013-08-25 02:17:00,71.3,68.2,30.27,NE,37,10.0,15.0,90,0.00,,---,0.00,VWS V14.00,2013-08-25 06:17:00,
2013-08-25 02:22:00,71.3,68.2,30.27,NE,48,9.0,15.0,90,0.00,,---,0.00,VWS V14.00,2013-08-25 06:22:00,
2013-08-25 02:27:00,71.2,68.1,30.27,NE,40,8.0,15.0,90,0.00,,---,0.00,VWS V14.00,2013-08-25 06:27:00,
2013-08-25 02:30:00,71.4,68.6,30.27,NE,45,10.0,16.0,91,0.00,,---,0.00,VWS V14.01,2013-08-25 06:30:00,
2013-08-25 02:32:00,71.2,68.1,30.27,NE,34,10.0,13.0,90,0.00,,---,0.00,VWS V14.00,2013-08-25 06:32:00,
2013-08-25 02:37:00,71.2,68.4,30.27,NE,49,5.0,13.0,91,0.00,,---,0.00,VWS V14.00,2013-08-25 06:37:00,
2013-08-25 02:42:00,71.2,68.4,30.27,NNE,31,10.0,13.0,91,0.00,,---,0.00,VWS V14.00,2013-08-25 06:42:00,
2013-08-25 02:47:00,71.3,68.2,30.27,NNE,30,9.0,15.0,90,0.00,,---,0.00,VWS V14.00,2013-08-25 06:47:00,
2013-08-25 02:52:00,71.3,68.9,30.27,NE,41,12.0,15.0,92,0.00,,---,0.00,VWS V14.00,2013-08-25 06:52:00,
2013-08-25 02:57:00,71.2,68.4,30.27,NNE,32,8.0,15.0,91,0.00,,---,0.00,VWS V14.00,2013-08-25 06:57:00,
2013-08-25 03:00:00,71.2,68.4,30.27,NE,45,10.0,15.0,91,0.00,,---,0.00,VWS V14.01,2013-08-25 07:00:00,
2013-08-25 03:02:00,71.2,68.8,30.27,NNE,30,8.0,12.0,92,0.00,,---,0.00,VWS V14.00,2013-08-25 07:02:00,
2013-08-25 03:07:00,71.2,68.4,30.27,NNE,29,12.0,13.0,91,0.00,,---,0.00,VWS V14.00,2013-08-25 07:07:00,
2013-08-25 03:12:00,71.1,68.7,30.26,NE,35,8.0,13.0,92,0.00,,---,0.00,VWS V14.00,2013-08-25 07:12:00,
2013-08-25 03:17:00,71.1,68.3,30.27,NE,46,11.0,15.0,91,0.00,,---,0.00,VWS V14.00,2013-08-25 07:17:00,
2013-08-25 03:22:00,71.1,68.0,30.27,NNE,31,11.0,15.0,90,0.00,,---,0.00,VWS V14.00,2013-08-25 07:22:00,
2013-08-25 03:27:00,71.0,68.2,30.27,NNE,33,13.0,15.0,91,0.00,,---,0.00,VWS V14.00,2013-08-25 07:27:00,
2013-08-25 03:30:00,71.1,68.0,30.27,NNE,22,10.0,16.0,90,0.00,,---,0.00,VWS V14.01,2013-08-25 07:30:00,
2013-08-25 03:32:00,71.1,68.0,30.27,NE,36,11.0,15.0,90,0.00,,---,0.00,VWS V14.00,2013-08-25 07:32:00,
2013-08-25 03:37:00,71.0,68.2,30.27,NE,34,9.0,15.0,91,0.00,,---,0.00,VWS V14.00,2013-08-25 07:37:00,
2013-08-25 03:42:00,71.0,67.9,30.26,NE,34,8.0,15.0,90,0.00,,---,0.00,VWS V14.00,2013-08-25 07:42:00,
2013-08-25 03:47:00,70.9,67.5,30.27,NNE,32,9.0,15.0,89,0.00,,---,0.00,VWS V14.00,2013-08-25 07:47:00,
2013-08-25 03:52:00,70.8,67.4,30.26,NNE,31,13.0,15.0,89,0.00,,---,0.00,VWS V14.00,2013-08-25 07:52:00,
2013-08-25 03:57:00,70.8,67.4,30.26,NE,49,9.0,15.0,89,0.00,,---,0.00,VWS V14.00,2013-08-25 07:57:00,
2013-08-25 04:00:00,70.9,67.5,30.26,NE,45,9.0,15.0,89,0.00,,---,0.00,VWS V14.01,2013-08-25 08:00:00,
2013-08-25 04:02:00,70.6,67.2,30.26,NE,39,12.0,13.0,89,0.00,,---,0.00,VWS V14.00,2013-08-25 08:02:00,
2013-08-25 04:07:00,70.6,67.2,30.26,NE,40,11.0,13.0,89,0.00,,---,0.00,VWS V14.00,2013-08-25 08:07:00,
2013-08-25 04:12:00,70.5,67.1,30.26,NNE,31,6.0,13.0,89,0.00,,---,0.00,VWS V14.00,2013-08-25 08:12:00,
2013-08-25 04:17:00,70.5,66.8,30.26,NE,44,6.0,15.0,88,0.00,,---,0.00,VWS V14.00,2013-08-25 08:17:00,
2013-08-25 04:22:00,70.4,66.7,30.26,NE,45,9.0,15.0,88,0.00,,---,0.00,VWS V14.00,2013-08-25 08:22:00,
2013-08-25 04:27:00,70.3,66.6,30.26,NNE,32,7.0,15.0,88,0.00,,---,0.00,VWS V14.00,2013-08-25 08:27:00,
2013-08-25 04:30:00,70.5,67.1,30.26,NE,45,8.0,15.0,89,0.00,,---,0.00,VWS V14.01,2013-08-25 08:30:00,
2013-08-25 04:32:00,70.3,66.9,30.26,NE,38,9.0,11.0,89,0.00,,---,0.00,VWS V14.00,2013-08-25 08:32:00,
2013-08-25 04:37:00,70.3,66.9,30.26,NE,35,9.0,12.0,89,0.00,,---,0.00,VWS V14.00,2013-08-25 08:37:00,
2013-08-25 04:42:00,70.3,66.9,30.26,NNE,25,9.0,13.0,89,0.00,,---,0.00,VWS V14.00,2013-08-25 08:42:00,
2013-08-25 04:47:00,70.4,67.0,30.26,NNE,29,8.0,13.0,89,0.00,,---,0.00,VWS V14.00,2013-08-25 08:47:00,
2013-08-25 04:52:00,70.3,66.9,30.26,NE,35,6.0,13.0,89,0.00,,---,0.00,VWS V14.00,2013-08-25 08:52:00,
2013-08-25 04:57:00,70.3,66.9,30.26,NNE,25,7.0,13.0,89,0.00,,---,0.00,VWS V14.00,2013-08-25 08:57:00,
2013-08-25 05:00:00,70.3,66.9,30.27,NE,45,8.0,13.0,89,0.00,,---,0.00,VWS V14.01,2013-08-25 09:00:00,
2013-08-25 05:02:00,70.3,66.9,30.26,NE,42,8.0,9.0,89,0.00,,---,0.00,VWS V14.00,2013-08-25 09:02:00,
2013-08-25 05:07:00,70.3,66.6,30.26,NNE,28,7.0,9.0,88,0.00,,---,0.00,VWS V14.00,2013-08-25 09:07:00,
2013-08-25 05:12:00,70.2,66.8,30.26,NE,43,8.0,10.0,89,0.00,,---,0.00,VWS V14.00,2013-08-25 09:12:00,
2013-08-25 05:17:00,70.2,66.8,30.26,NNE,28,7.0,10.0,89,0.00,,---,0.00,VWS V14.00,2013-08-25 09:17:00,
2013-08-25 05:22:00,70.1,66.7,30.27,NE,40,8.0,10.0,89,0.00,,---,0.00,VWS V14.00,2013-08-25 09:22:00,
2013-08-25 05:27:00,70.1,66.4,30.27,NE,38,5.0,10.0,88,0.00,,---,0.00,VWS V14.00,2013-08-25 09:27:00,
2013-08-25 05:30:00,70.2,66.8,30.27,NNE,22,7.0,10.0,89,0.00,,---,0.00,VWS V14.01,2013-08-25 09:30:00,
2013-08-25 05:32:00,70.0,66.6,30.27,NE,35,5.0,10.0,89,0.00,,---,0.00,VWS V14.00,2013-08-25 09:32:00,
2013-08-25 05:37:00,70.0,66.6,30.27,NNE,28,7.0,10.0,89,0.00,,---,0.00,VWS V14.00,2013-08-25 09:37:00,
2013-08-25 05:42:00,69.9,66.8,30.27,NNE,33,7.0,10.0,90,0.00,,---,0.00,VWS V14.00,2013-08-25 09:42:00,
2013-08-25 05:47:00,69.9,66.8,30.27,NNE,33,6.0,10.0,90,0.00,,---,0.00,VWS V14.00,2013-08-25 09:47:00,
2013-08-25 05:52:00,69.8,66.4,30.27,NE,34,7.0,10.0,89,0.00,,---,0.00,VWS V14.00,2013-08-25 09:52:00,
2013-08-25 05:57:00,69.8,66.7,30.27,NE,39,5.0,10.0,90,0.00,,---,0.00,VWS V14.00,2013-08-25 09:57:00,
2013-08-25 06:00:00,69.9,66.8,30.27,NNE,22,6.0,10.0,90,0.00,,---,0.00,VWS V14.01,2013-08-25 10:00:00,
2013-08-25 06:02:00,69.7,66.6,30.27,NE,45,6.0,7.0,90,0.00,,---,0.00,VWS V14.00,2013-08-25 10:02:00,
2013-08-25 06:07:00,69.6,66.5,30.27,NNE,27,5.0,9.0,90,0.00,,---,0.00,VWS V14.00,2013-08-25 10:07:00,
2013-08-25 06:12:00,69.6,66.5,30.28,NNE,25,4.0,9.0,90,0.00,,---,0.00,VWS V14.00,2013-08-25 10:12:00,
2013-08-25 06:17:00,69.5,66.4,30.28,NNE,24,6.0,9.0,90,0.00,,---,0.00,VWS V14.00,2013-08-25 10:17:00,
2013-08-25 06:22:00,69.5,66.4,30.27,NE,43,7.0,9.0,90,0.00,,---,0.00,VWS V14.00,2013-08-25 10:22:00,
2013-08-25 06:27:00,69.5,66.8,30.28,NE,37,7.0,9.0,91,0.00,,---,0.00,VWS V14.00,2013-08-25 10:27:00,
2013-08-25 06:30:00,69.6,66.9,30.28,NE,45,6.0,10.0,91,0.00,,---,0.00,VWS V14.01,2013-08-25 10:30:00,
2013-08-25 06:32:00,69.5,66.8,30.28,NE,42,4.0,9.0,91,0.00,,---,0.00,VWS V14.00,2013-08-25 10:32:00,
2013-08-25 06:37:00,69.4,66.7,30.28,NE,38,7.0,11.0,91,0.00,,---,0.00,VWS V14.00,2013-08-25 10:37:00,
2013-08-25 06:42:00,69.4,66.3,30.28,NNE,33,7.0,11.0,90,0.00,,---,0.00,VWS V14.00,2013-08-25 10:42:00,
2013-08-25 06:47:00,69.4,66.7,30.29,NE,37,10.0,11.0,91,0.00,,---,0.00,VWS V14.00,2013-08-25 10:47:00,
2013-08-25 06:52:00,69.4,66.7,30.29,NE,44,5.0,11.0,91,0.00,,---,0.00,VWS V14.00,2013-08-25 10:52:00,
2013-08-25 06:57:00,69.3,66.6,30.29,NNE,29,8.0,11.0,91,0.00,,---,0.00,VWS V14.00,2013-08-25 10:57:00,
2013-08-25 07:00:00,69.4,66.7,30.29,NE,45,7.0,11.0,91,0.00,,---,0.00,VWS V14.01,2013-08-25 11:00:00,
2013-08-25 07:02:00,69.3,66.6,30.29,NE,46,7.0,11.0,91,0.00,,---,0.00,VWS V14.00,2013-08-25 11:02:00,
2013-08-25 07:07:00,69.3,66.6,30.29,NE,37,4.0,11.0,91,0.00,,---,0.00,VWS V14.00,2013-08-25 11:07:00,
2013-08-25 07:12:00,69.3,66.2,30.30,NE,48,5.0,11.0,90,0.00,,---,0.00,VWS V14.00,2013-08-25 11:12:00,
2013-08-25 07:17:00,69.3,66.2,30.29,NE,40,6.0,11.0,90,0.00,,---,0.00,VWS V14.00,2013-08-25 11:17:00,
2013-08-25 07:22:00,69.3,66.6,30.30,NE,39,6.0,11.0,91,0.00,,---,0.00,VWS V14.00,2013-08-25 11:22:00,
2013-08-25 07:27:00,69.4,66.3,30.30,NE,49,8.0,11.0,90,0.00,,---,0.00,VWS V14.00,2013-08-25 11:27:00,
2013-08-25 07:30:00,69.3,66.6,30.30,NE,45,7.0,11.0,91,0.00,,---,0.00,VWS V14.01,2013-08-25 11:30:00,
2013-08-25 07:32:00,69.4,66.3,30.30,NE,38,8.0,11.0,90,0.00,,---,0.00,VWS V14.00,2013-08-25 11:32:00,
2013-08-25 07:37:00,69.5,66.8,30.30,NE,47,7.0,11.0,91,0.00,,---,0.00,VWS V14.00,2013-08-25 11:37:00,
2013-08-25 07:42:00,69.5,66.4,30.30,NE,35,7.0,12.0,90,0.00,,---,0.00,VWS V14.00,2013-08-25 11:42:00,
2013-08-25 07:47:00,69.7,66.3,30.30,NNE,31,9.0,12.0,89,0.00,,---,0.00,VWS V14.00,2013-08-25 11:47:00,
2013-08-25 07:52:00,69.7,66.3,30.30,NE,34,6.0,12.0,89,0.00,,---,0.00,VWS V14.00,2013-08-25 11:52:00,
2013-08-25 07:56:00,69.8,66.4,30.31,NNE,31,9.0,12.0,89,0.00,,---,0.00,VWS V14.00,2013-08-25 11:56:00,
2013-08-25 08:00:00,69.6,65.9,30.31,NE,45,8.0,13.0,88,0.00,,---,0.00,VWS V14.01,2013-08-25 12:00:00,
2013-08-25 08:01:00,69.9,66.2,30.30,NNE,32,11.0,11.0,88,0.00,,---,0.00,VWS V14.00,2013-08-25 12:01:00,
2013-08-25 08:06:00,70.0,66.3,30.31,NNE,29,8.0,13.0,88,0.00,,---,0.00,VWS V14.00,2013-08-25 12:06:00,
2013-08-25 08:11:00,70.1,66.4,30.31,NE,34,7.0,13.0,88,0.00,,---,0.00,VWS V14.00,2013-08-25 12:11:00,
2013-08-25 08:16:00,70.3,66.6,30.32,NNE,33,11.0,14.0,88,0.00,,---,0.00,VWS V14.00,2013-08-25 12:16:00,
2013-08-25 08:21:00,70.3,66.2,30.32,NE,38,8.0,14.0,87,0.00,,---,0.00,VWS V14.00,2013-08-25 12:21:00,
2013-08-25 08:26:00,70.4,66.0,30.32,NE,38,9.0,14.0,86,0.00,,---,0.00,VWS V14.00,2013-08-25 12:26:00,
2013-08-25 08:30:00,70.2,65.8,30.32,NE,45,9.0,14.0,86,0.00,,---,0.00,VWS V14.01,2013-08-25 12:30:00,
2013-08-25 08:32:00,70.6,66.6,30.32,NNE,24,9.0,12.0,87,0.00,,---,0.00,VWS V14.00,2013-08-25 12:32:00,
2013-08-25 08:36:00,70.8,66.4,30.32,NNE,29,12.0,13.0,86,0.00,,---,0.00,VWS V14.00,2013-08-25 12:36:00,
2013-08-25 08:41:00,70.9,66.5,30.32,NE,43,10.0,14.0,86,0.00,,---,0.00,VWS V14.00,2013-08-25 12:41:00,
2013-08-25 08:47:00,71.1,66.7,30.33,NNE,20,9.0,15.0,86,0.00,,---,0.00,VWS V14.00,2013-08-25 12:47:00,
2013-08-25 08:51:00,71.3,66.9,30.33,NE,36,7.0,15.0,86,0.00,,---,0.00,VWS V14.00,2013-08-25 12:51:00,
2013-08-25 08:56:00,71.5,66.4,30.33,NE,34,11.0,17.0,84,0.00,,---,0.00,VWS V14.00,2013-08-25 12:56:00,
2013-08-25 09:00:00,71.1,66.4,30.33,NNE,22,10.0,17.0,85,0.00,,---,0.00,VWS V14.01,2013-08-25 13:00:00,
2013-08-25 09:01:00,71.6,67.2,30.33,NE,38,13.0,16.0,86,0.00,,---,0.00,VWS V14.00,2013-08-25 13:01:00,
2013-08-25 09:06:00,71.8,67.1,30.34,NNE,23,9.0,18.0,85,0.00,,---,0.00,VWS V14.00,2013-08-25 13:06:00,
2013-08-25 09:11:00,72.0,66.9,30.34,NE,43,12.0,18.0,84,0.00,,---,0.00,VWS V14.00,2013-08-25 13:11:00,
2013-08-25 09:16:00,72.2,67.8,30.34,North,9,15.0,18.0,86,0.00,,---,0.00,VWS V14.00,2013-08-25 13:16:00,
2013-08-25 09:21:00,72.3,67.5,30.34,NNE,12,11.0,21.0,85,0.00,,---,0.00,VWS V14.00,2013-08-25 13:21:00,
2013-08-25 09:26:00,72.4,67.6,30.34,NNE,25,14.0,21.0,85,0.00,,---,0.00,VWS V14.00,2013-08-25 13:26:00,
2013-08-25 09:30:00,72.1,67.0,30.34,NNE,22,13.0,21.0,84,0.00,,---,0.00,VWS V14.01,2013-08-25 13:30:00,
2013-08-25 09:31:00,72.5,67.4,30.34,NNE,31,18.0,20.0,84,0.00,,---,0.00,VWS V14.00,2013-08-25 13:31:00,
2013-08-25 09:36:00,72.6,67.5,30.34,NNE,25,12.0,20.0,84,0.00,,---,0.00,VWS V14.00,2013-08-25 13:36:00,
2013-08-25 09:41:00,72.7,67.6,30.34,NNE,14,14.0,20.0,84,0.00,,---,0.00,VWS V14.00,2013-08-25 13:41:00,
2013-08-25 09:46:00,72.8,67.3,30.35,NNE,28,17.0,20.0,83,0.00,,---,0.00,VWS V14.00,2013-08-25 13:46:00,
2013-08-25 09:51:00,72.8,67.3,30.34,NNE,14,17.0,20.0,83,0.00,,---,0.00,VWS V14.00,2013-08-25 13:51:00,
2013-08-25 09:56:00,72.9,67.8,30.35,NE,34,12.0,20.0,84,0.00,,---,0.00,VWS V14.00,2013-08-25 13:56:00,
2013-08-25 10:00:00,72.7,67.6,30.34,NNE,22,15.0,20.0,84,0.00,,---,0.00,VWS V14.01,2013-08-25 14:00:00,
2013-08-25 10:01:00,73.0,67.5,30.35,NNE,28,16.0,19.0,83,0.00,,---,0.00,VWS V14.00,2013-08-25 14:01:00,
2013-08-25 10:06:00,73.0,67.5,30.34,NE,43,14.0,19.0,83,0.00,,---,0.00,VWS V14.00,2013-08-25 14:06:00,
2013-08-25 10:11:00,73.1,67.6,30.34,NNE,28,12.0,21.0,83,0.00,,---,0.00,VWS V14.00,2013-08-25 14:11:00,
2013-08-25 10:16:00,73.2,67.4,30.35,NE,35,13.0,21.0,82,0.00,,---,0.00,VWS V14.00,2013-08-25 14:16:00,
2013-08-25 10:21:00,73.3,67.8,30.35,NE,37,11.0,21.0,83,0.00,,---,0.00,VWS V14.00,2013-08-25 14:21:00,
2013-08-25 10:26:00,73.4,67.6,30.34,NNE,28,13.0,21.0,82,0.00,,---,0.00,VWS V14.00,2013-08-25 14:26:00,
2013-08-25 10:30:00,73.2,67.4,30.35,NE,45,14.0,21.0,82,0.00,,---,0.00,VWS V14.01,2013-08-25 14:30:00,
2013-08-25 10:31:00,73.5,68.0,30.35,NE,36,15.0,18.0,83,0.00,,---,0.00,VWS V14.00,2013-08-25 14:31:00,
2013-08-25 10:36:00,73.6,67.4,30.35,NE,35,13.0,20.0,81,0.00,,---,0.00,VWS V14.00,2013-08-25 14:36:00,
2013-08-25 10:41:00,73.6,68.1,30.35,NNE,26,19.0,20.0,83,0.00,,---,0.00,VWS V14.00,2013-08-25 14:41:00,
2013-08-25 10:46:00,73.8,67.6,30.35,NE,35,12.0,20.0,81,0.00,,---,0.00,VWS V14.00,2013-08-25 14:46:00,
2013-08-25 10:51:00,73.9,68.4,30.35,NNE,16,13.0,20.0,83,0.00,,---,0.00,VWS V14.00,2013-08-25 14:51:00,
2013-08-25 10:56:00,74.1,68.3,30.35,NNE,25,9.0,20.0,82,0.00,,---,0.00,VWS V14.00,2013-08-25 14:56:00,
2013-08-25 11:00:00,73.7,67.5,30.35,NNE,22,13.0,20.0,81,0.00,,---,0.00,VWS V14.01,2013-08-25 15:00:00,
2013-08-25 11:01:00,74.1,67.5,30.35,NNE,28,15.0,20.0,80,0.00,,---,0.00,VWS V14.00,2013-08-25 15:01:00,
2013-08-25 11:06:00,74.1,67.5,30.35,NNE,32,16.0,21.0,80,0.00,,---,0.00,VWS V14.00,2013-08-25 15:06:00,
2013-08-25 11:11:00,74.2,68.0,30.35,NE,36,16.0,21.0,81,0.00,,---,0.00,VWS V14.00,2013-08-25 15:11:00,
2013-08-25 11:16:00,74.3,68.1,30.34,NNE,14,16.0,21.0,81,0.00,,---,0.00,VWS V14.00,2013-08-25 15:16:00,
2013-08-25 11:21:00,74.4,68.6,30.35,NNE,19,14.0,21.0,82,0.00,,---,0.00,VWS V14.00,2013-08-25 15:21:00,
2013-08-25 11:26:00,74.6,67.7,30.35,NNE,24,12.0,21.0,79,0.00,,---,0.00,VWS V14.00,2013-08-25 15:26:00,
2013-08-25 11:30:00,74.3,67.7,30.35,NNE,22,13.0,21.0,80,0.00,,---,0.00,VWS V14.01,2013-08-25 15:30:00,
2013-08-25 11:31:00,74.8,68.6,30.35,NNE,18,12.0,21.0,81,0.00,,---,0.00,VWS V14.00,2013-08-25 15:31:00,
2013-08-25 11:36:00,74.9,67.9,30.35,NNE,18,13.0,21.0,79,0.00,,---,0.00,VWS V14.00,2013-08-25 15:36:00,
2013-08-25 11:41:00,75.0,68.8,30.35,NE,39,10.0,21.0,81,0.00,,---,0.00,VWS V14.00,2013-08-25 15:41:00,
2013-08-25 11:46:00,75.1,68.5,30.34,NNE,21,10.0,21.0,80,0.00,,---,0.00,VWS V14.00,2013-08-25 15:46:00,
2013-08-25 11:51:00,75.2,67.9,30.34,NNW,343,12.0,21.0,78,0.00,,---,0.00,VWS V14.00,2013-08-25 15:51:00,
2013-08-25 11:56:00,75.3,68.0,30.35,NE,44,13.0,21.0,78,0.00,,---,0.00,VWS V14.00,2013-08-25 15:56:00,
2013-08-25 12:00:00,75.1,67.8,30.34,NNE,22,13.0,21.0,78,0.00,,---,0.00,VWS V14.01,2013-08-25 16:00:00,
2013-08-25 12:01:00,75.4,68.1,30.34,NNE,32,7.0,18.0,78,0.00,,---,0.00,VWS V14.00,2013-08-25 16:01:00,
2013-08-25 12:06:00,75.5,68.2,30.34,NNE,29,11.0,18.0,78,0.00,,---,0.00,VWS V14.00,2013-08-25 16:06:00,
2013-08-25 12:11:00,75.6,68.3,30.34,NE,45,10.0,18.0,78,0.00,,---,0.00,VWS V14.00,2013-08-25 16:11:00,
2013-08-25 12:16:00,75.6,68.3,30.34,NNE,28,12.0,18.0,78,0.00,,---,0.00,VWS V14.00,2013-08-25 16:16:00,
2013-08-25 12:21:00,75.8,68.5,30.34,NNE,32,10.0,18.0,78,0.00,,---,0.00,VWS V14.00,2013-08-25 16:21:00,
2013-08-25 12:26:00,75.9,68.6,30.34,NNE,33,10.0,18.0,78,0.00,,---,0.00,VWS V14.00,2013-08-25 16:26:00,
2013-08-25 12:30:00,75.7,68.4,30.34,NE,45,13.0,18.0,78,0.00,,---,0.00,VWS V14.01,2013-08-25 16:30:00,
2013-08-25 12:31:00,76.0,68.7,30.33,NE,38,14.0,17.0,78,0.00,,---,0.00,VWS V14.00,2013-08-25 16:31:00,
2013-08-25 12:36:00,76.2,68.5,30.33,NNE,15,18.0,20.0,77,0.00,,---,0.00,VWS V14.00,2013-08-25 16:36:00,
2013-08-25 12:41:00,76.3,68.9,30.33,NE,37,12.0,20.0,78,0.00,,---,0.00,VWS V14.00,2013-08-25 16:41:00,
2013-08-25 12:46:00,76.4,69.0,30.33,NNE,30,15.0,20.0,78,0.00,,---,0.00,VWS V14.00,2013-08-25 16:46:00,
2013-08-25 12:51:00,76.4,69.0,30.33,NE,34,12.0,20.0,78,0.00,,---,0.00,VWS V14.00,2013-08-25 16:51:00,
2013-08-25 12:56:00,76.6,68.9,30.33,NNE,32,11.0,20.0,77,0.00,,---,0.00,VWS V14.00,2013-08-25 16:56:00,
2013-08-25 13:00:00,76.4,68.7,30.33,NNE,22,13.0,20.0,77,0.00,,---,0.00,VWS V14.01,2013-08-25 17:00:00,
2013-08-25 13:01:00,76.6,68.9,30.33,NE,40,12.0,18.0,77,0.00,,---,0.00,VWS V14.00,2013-08-25 17:01:00,
2013-08-25 13:06:00,76.8,69.1,30.33,NNE,26,14.0,21.0,77,0.00,,---,0.00,VWS V14.00,2013-08-25 17:06:00,
2013-08-25 13:11:00,76.9,69.2,30.33,NE,39,13.0,21.0,77,0.00,,---,0.00,VWS V14.00,2013-08-25 17:11:00,
2013-08-25 13:16:00,76.9,69.5,30.33,NNE,25,10.0,21.0,78,0.00,,---,0.00,VWS V14.00,2013-08-25 17:16:00,
2013-08-25 13:21:00,77.0,69.2,30.33,NNE,21,10.0,21.0,77,0.00,,---,0.00,VWS V14.00,2013-08-25 17:21:00,
2013-08-25 13:26:00,77.0,69.2,30.32,NE,43,12.0,21.0,77,0.00,,---,0.00,VWS V14.00,2013-08-25 17:26:00,
2013-08-25 13:30:00,76.9,69.5,30.32,NNE,22,12.0,21.0,78,0.00,,---,0.00,VWS V14.01,2013-08-25 17:30:00,
2013-08-25 13:31:00,77.1,69.7,30.32,NE,34,16.0,16.0,78,0.00,,---,0.00,VWS V14.00,2013-08-25 17:31:00,
2013-08-25 13:36:00,77.2,69.8,30.33,NE,38,11.0,19.0,78,0.00,,---,0.00,VWS V14.00,2013-08-25 17:36:00,
2013-08-25 13:41:00,77.3,69.2,30.32,NE,38,13.0,19.0,76,0.00,,---,0.00,VWS V14.00,2013-08-25 17:41:00,
2013-08-25 13:46:00,77.3,69.2,30.32,NE,37,16.0,19.0,76,0.00,,---,0.00,VWS V14.00,2013-08-25 17:46:00,
2013-08-25 13:51:00,77.4,69.2,30.32,NE,39,12.0,19.0,76,0.00,,---,0.00,VWS V14.00,2013-08-25 17:51:00,
2013-08-25 13:56:00,77.5,69.7,30.32,NE,48,9.0,19.0,77,0.00,,---,0.00,VWS V14.00,2013-08-25 17:56:00,
2013-08-25 14:00:00,77.3,69.5,30.32,NE,45,13.0,19.0,77,0.00,,---,0.00,VWS V14.01,2013-08-25 18:00:00,
2013-08-25 14:01:00,77.6,69.4,30.32,NE,56,9.0,18.0,76,0.00,,---,0.00,VWS V14.00,2013-08-25 18:01:00,
2013-08-25 14:06:00,77.8,70.0,30.32,NE,38,12.0,21.0,77,0.00,,---,0.00,VWS V14.00,2013-08-25 18:06:00,
2013-08-25 14:11:00,77.8,69.6,30.32,NE,36,18.0,21.0,76,0.00,,---,0.00,VWS V14.00,2013-08-25 18:11:00,
2013-08-25 14:16:00,77.8,70.0,30.31,NNE,30,18.0,21.0,77,0.00,,---,0.00,VWS V14.00,2013-08-25 18:16:00,
2013-08-25 14:21:00,77.7,69.9,30.31,NNE,33,13.0,21.0,77,0.00,,---,0.00,VWS V14.00,2013-08-25 18:21:00,
2013-08-25 14:26:00,77.6,69.8,30.31,NE,42,11.0,21.0,77,0.00,,---,0.00,VWS V14.00,2013-08-25 18:26:00,
2013-08-25 14:30:00,77.7,69.5,30.31,NE,45,14.0,21.0,76,0.00,,---,0.00,VWS V14.01,2013-08-25 18:30:00,
2013-08-25 14:31:00,77.6,69.8,30.31,NE,44,12.0,17.0,77,0.00,,---,0.00,VWS V14.00,2013-08-25 18:31:00,
2013-08-25 14:36:00,77.7,70.3,30.31,NNE,15,10.0,19.0,78,0.00,,---,0.00,VWS V14.00,2013-08-25 18:36:00,
2013-08-25 14:41:00,77.8,70.4,30.31,NE,47,11.0,19.0,78,0.00,,---,0.00,VWS V14.00,2013-08-25 18:41:00,
2013-08-25 14:46:00,77.8,69.6,30.31,NE,43,13.0,19.0,76,0.00,,---,0.00,VWS V14.00,2013-08-25 18:46:00,
2013-08-25 14:51:00,77.8,69.6,30.30,NE,38,18.0,19.0,76,0.00,,---,0.00,VWS V14.00,2013-08-25 18:51:00,
2013-08-25 14:56:00,77.9,69.7,30.31,NE,44,11.0,19.0,76,0.00,,---,0.00,VWS V14.00,2013-08-25 18:56:00,
2013-08-25 15:00:00,77.8,69.2,30.31,NE,45,12.0,21.0,75,0.00,,---,0.00,VWS V14.01,2013-08-25 19:00:00,
2013-08-25 15:01:00,77.8,69.2,30.30,NE,50,7.0,16.0,75,0.00,,---,0.00,VWS V14.00,2013-08-25 19:01:00,
2013-08-25 15:06:00,77.8,69.6,30.30,NE,43,12.0,18.0,76,0.00,,---,0.00,VWS V14.00,2013-08-25 19:06:00,
2013-08-25 15:11:00,77.9,69.7,30.30,NE,41,12.0,18.0,76,0.00,,---,0.00,VWS V14.00,2013-08-25 19:11:00,
2013-08-25 15:16:00,77.9,69.3,30.30,NE,42,12.0,20.0,75,0.00,,---,0.00,VWS V14.00,2013-08-25 19:16:00,
2013-08-25 15:21:00,77.9,69.7,30.30,NE,46,9.0,20.0,76,0.00,,---,0.00,VWS V14.00,2013-08-25 19:21:00,
2013-08-25 15:26:00,77.9,69.7,30.30,NE,46,17.0,23.0,76,0.00,,---,0.00,VWS V14.00,2013-08-25 19:26:00,
2013-08-25 15:30:00,77.9,69.3,30.30,NE,45,12.0,23.0,75,0.00,,---,0.00,VWS V14.01,2013-08-25 19:30:00,
2013-08-25 15:31:00,78.0,69.8,30.30,NE,43,9.0,17.0,76,0.00,,---,0.00,VWS V14.00,2013-08-25 19:31:00,
2013-08-25 15:36:00,78.0,69.1,30.29,NE,35,16.0,17.0,74,0.00,,---,0.00,VWS V14.00,2013-08-25 19:36:00,
2013-08-25 15:41:00,78.1,69.5,30.30,NE,37,8.0,20.0,75,0.00,,---,0.00,VWS V14.00,2013-08-25 19:41:00,
2013-08-25 15:46:00,78.1,69.1,30.29,NE,46,10.0,20.0,74,0.00,,---,0.00,VWS V14.00,2013-08-25 19:46:00,
2013-08-25 15:51:00,78.1,69.1,30.29,NE,49,8.0,20.0,74,0.00,,---,0.00,VWS V14.00,2013-08-25 19:51:00,
2013-08-25 15:56:00,78.2,69.6,30.30,NE,47,12.0,21.0,75,0.00,,---,0.00,VWS V14.00,2013-08-25 19:56:00,
2013-08-25 16:00:00,78.1,69.5,30.30,NE,45,13.0,21.0,75,0.00,,---,0.00,VWS V14.01,2013-08-25 20:00:00,
2013-08-25 16:01:00,78.1,69.5,30.30,NE,36,15.0,18.0,75,0.00,,---,0.00,VWS V14.00,2013-08-25 20:01:00,
2013-08-25 16:06:00,78.2,69.6,30.30,NNE,33,12.0,19.0,75,0.00,,---,0.00,VWS V14.00,2013-08-25 20:06:00,
2013-08-25 16:11:00,78.1,69.5,30.29,NE,34,15.0,19.0,75,0.00,,---,0.00,VWS V14.00,2013-08-25 20:11:00,
2013-08-25 16:16:00,78.0,69.4,30.30,NE,49,12.0,20.0,75,0.00,,---,0.00,VWS V14.00,2013-08-25 20:16:00,
2013-08-25 16:21:00,77.8,69.2,30.29,ENE,69,8.0,20.0,75,0.00,,---,0.00,VWS V14.00,2013-08-25 20:21:00,
2013-08-25 16:26:00,77.7,69.2,30.30,NE,47,9.0,20.0,75,0.00,,---,0.00,VWS V14.00,2013-08-25 20:26:00,
2013-08-25 16:30:00,78.0,69.4,30.29,NE,45,12.0,20.0,75,0.00,,---,0.00,VWS V14.01,2013-08-25 20:30:00,
2013-08-25 16:31:00,77.6,69.1,30.29,ENE,59,8.0,16.0,75,0.00,,---,0.00,VWS V14.00,2013-08-25 20:31:00,
2013-08-25 16:36:00,77.5,69.3,30.29,NE,48,6.0,16.0,76,0.00,,---,0.00,VWS V14.00,2013-08-25 20:36:00,
2013-08-25 16:41:00,77.4,68.9,30.28,ENE,62,9.0,17.0,75,0.00,,---,0.00,VWS V14.00,2013-08-25 20:41:00,
2013-08-25 16:46:00,77.3,69.5,30.28,NE,52,10.0,17.0,77,0.00,,---,0.00,VWS V14.00,2013-08-25 20:46:00,
2013-08-25 16:51:00,77.2,69.4,30.29,ENE,67,12.0,17.0,77,0.00,,---,0.00,VWS V14.00,2013-08-25 20:51:00,
2013-08-25 16:56:00,77.0,68.9,30.29,NE,55,10.0,17.0,76,0.00,,---,0.00,VWS V14.00,2013-08-25 20:56:00,
2013-08-25 17:00:00,77.3,69.9,30.29,NE,45,10.0,19.0,78,0.00,,---,0.00,VWS V14.01,2013-08-25 21:00:00,
2013-08-25 17:01:00,77.0,69.2,30.29,NE,52,11.0,14.0,77,0.00,,---,0.00,VWS V14.00,2013-08-25 21:01:00,
2013-08-25 17:06:00,76.9,69.2,30.29,NE,56,10.0,15.0,77,0.00,,---,0.00,VWS V14.00,2013-08-25 21:06:00,
2013-08-25 17:11:00,76.8,69.1,30.29,NE,47,3.0,16.0,77,0.00,,---,0.00,VWS V14.00,2013-08-25 21:11:00,
2013-08-25 17:16:00,76.7,68.9,30.29,NE,44,12.0,17.0,77,0.00,,---,0.00,VWS V14.00,2013-08-25 21:16:00,
2013-08-25 17:21:00,76.6,68.9,30.30,NE,35,12.0,18.0,77,0.00,,---,0.00,VWS V14.00,2013-08-25 21:21:00,
2013-08-25 17:26:00,76.5,68.8,30.29,NE,42,15.0,19.0,77,0.00,,---,0.00,VWS V14.00,2013-08-25 21:26:00,
2013-08-25 17:30:00,76.7,68.9,30.29,NE,45,12.0,20.0,77,0.00,,---,0.00,VWS V14.01,2013-08-25 21:30:00,
2013-08-25 17:31:00,76.4,68.7,30.29,NE,45,14.0,20.0,77,0.00,,---,0.00,VWS V14.00,2013-08-25 21:31:00,
2013-08-25 17:36:00,76.3,68.9,30.29,NE,40,18.0,20.0,78,0.00,,---,0.00,VWS V14.00,2013-08-25 21:36:00,
2013-08-25 17:41:00,76.2,68.8,30.29,NE,46,12.0,20.0,78,0.00,,---,0.00,VWS V14.00,2013-08-25 21:41:00,
2013-08-25 17:46:00,76.2,68.8,30.29,NE,44,10.0,20.0,78,0.00,,---,0.00,VWS V14.00,2013-08-25 21:46:00,
2013-08-25 17:51:00,76.1,69.1,30.30,NE,51,9.0,20.0,79,0.00,,---,0.00,VWS V14.00,2013-08-25 21:51:00,
2013-08-25 17:56:00,76.1,68.8,30.30,NE,43,11.0,20.0,78,0.00,,---,0.00,VWS V14.00,2013-08-25 21:56:00,
2013-08-25 18:00:00,76.2,68.8,30.30,NE,45,12.0,20.0,78,0.00,,---,0.00,VWS V14.01,2013-08-25 22:00:00,
2013-08-25 18:01:00,76.0,68.7,30.30,NE,43,10.0,14.0,78,0.00,,---,0.00,VWS V14.00,2013-08-25 22:01:00,
2013-08-25 18:06:00,76.0,69.0,30.30,NE,36,13.0,16.0,79,0.00,,---,0.00,VWS V14.00,2013-08-25 22:06:00,
2013-08-25 18:11:00,75.9,69.3,30.30,NE,44,12.0,16.0,80,0.00,,---,0.00,VWS V14.00,2013-08-25 22:11:00,
2013-08-25 18:16:00,75.9,68.9,30.30,NE,39,11.0,16.0,79,0.00,,---,0.00,VWS V14.00,2013-08-25 22:16:00,
2013-08-25 18:21:00,75.8,68.5,30.30,NE,47,12.0,17.0,78,0.00,,---,0.00,VWS V14.00,2013-08-25 22:21:00,
2013-08-25 18:26:00,75.7,68.7,30.30,NE,46,11.0,17.0,79,0.00,,---,0.00,VWS V14.00,2013-08-25 22:26:00,
2013-08-25 18:30:00,75.9,68.9,30.30,NE,45,11.0,17.0,79,0.00,,---,0.00,VWS V14.01,2013-08-25 22:30:00,
2013-08-25 18:31:00,75.6,68.6,30.30,NE,52,6.0,14.0,79,0.00,,---,0.00,VWS V14.00,2013-08-25 22:31:00,
2013-08-25 18:36:00,75.5,68.5,30.30,NE,48,13.0,16.0,79,0.00,,---,0.00,VWS V14.00,2013-08-25 22:36:00,
2013-08-25 18:41:00,75.5,68.5,30.30,NE,44,4.0,17.0,79,0.00,,---,0.00,VWS V14.00,2013-08-25 22:41:00,
2013-08-25 18:46:00,75.3,68.3,30.30,NE,38,8.0,17.0,79,0.00,,---,0.00,VWS V14.00,2013-08-25 22:46:00,
2013-08-25 18:51:00,75.3,68.3,30.30,NNE,28,15.0,17.0,79,0.00,,---,0.00,VWS V14.00,2013-08-25 22:51:00,
2013-08-25 18:56:00,75.1,67.8,30.30,NE,47,8.0,17.0,78,0.00,,---,0.00,VWS V14.00,2013-08-25 22:56:00,
2013-08-25 19:00:00,75.4,68.1,30.30,NE,45,10.0,19.0,78,0.00,,---,0.00,VWS V14.01,2013-08-25 23:00:00,
2013-08-25 19:01:00,75.0,67.7,30.30,NE,50,12.0,14.0,78,0.00,,---,0.00,VWS V14.00,2013-08-25 23:01:00,
2013-08-25 19:06:00,74.9,67.6,30.30,NE,40,15.0,17.0,78,0.00,,---,0.00,VWS V14.00,2013-08-25 23:06:00,
2013-08-25 19:11:00,74.7,67.8,30.30,NE,35,15.0,20.0,79,0.00,,---,0.00,VWS V14.00,2013-08-25 23:11:00,
2013-08-25 19:16:00,74.6,68.0,30.30,NE,42,9.0,20.0,80,0.00,,---,0.00,VWS V14.00,2013-08-25 23:16:00,
2013-08-25 19:21:00,74.4,67.8,30.30,NE,45,13.0,20.0,80,0.00,,---,0.00,VWS V14.00,2013-08-25 23:21:00,
2013-08-25 19:26:00,74.3,68.1,30.30,NE,40,11.0,20.0,81,0.00,,---,0.00,VWS V14.00,2013-08-25 23:26:00,
2013-08-25 19:30:00,74.6,68.4,30.30,NE,45,11.0,20.0,81,0.00,,---,0.00,VWS V14.01,2013-08-25 23:30:00,
2013-08-25 19:31:00,74.2,68.0,30.31,NE,41,10.0,13.0,81,0.00,,---,0.00,VWS V14.00,2013-08-25 23:31:00,
2013-08-25 19:36:00,74.1,67.9,30.30,NE,46,12.0,14.0,81,0.00,,---,0.00,VWS V14.00,2013-08-25 23:36:00,
2013-08-25 19:41:00,74.0,68.2,30.30,NE,52,8.0,14.0,82,0.00,,---,0.00,VWS V14.00,2013-08-25 23:41:00,
2013-08-25 19:46:00,73.8,68.0,30.30,NE,44,7.0,16.0,82,0.00,,---,0.00,VWS V14.00,2013-08-25 23:46:00,
2013-08-25 19:51:00,73.7,67.9,30.30,NE,43,12.0,16.0,82,0.00,,---,0.00,VWS V14.00,2013-08-25 23:51:00,
2013-08-25 19:56:00,73.6,68.1,30.30,NE,40,13.0,16.0,83,0.00,,---,0.00,VWS V14.00,2013-08-25 23:56:00,
2013-08-25 20:00:00,73.8,68.3,30.31,NE,45,9.0,16.0,83,0.00,,---,0.00,VWS V14.01,2013-08-26 00:00:00,
2013-08-25 20:01:00,73.5,68.0,30.31,NE,48,7.0,11.0,83,0.00,,---,0.00,VWS V14.00,2013-08-26 00:01:00,
2013-08-25 20:06:00,73.4,67.9,30.30,NE,49,9.0,14.0,83,0.00,,---,0.00,VWS V14.00,2013-08-26 00:06:00,
2013-08-25 20:11:00,73.2,67.7,30.31,NE,37,13.0,16.0,83,0.00,,---,0.00,VWS V14.00,2013-08-26 00:11:00,
2013-08-25 20:16:00,73.1,68.0,30.30,NE,40,8.0,16.0,84,0.00,,---,0.00,VWS V14.00,2013-08-26 00:16:00,
2013-08-25 20:21:00,73.0,67.9,30.30,NE,44,9.0,16.0,84,0.00,,---,0.00,VWS V14.00,2013-08-26 00:21:00,
2013-08-25 20:26:00,73.0,68.2,30.31,NE,45,9.0,16.0,85,0.00,,---,0.00,VWS V14.00,2013-08-26 00:26:00,
2013-08-25 20:30:00,73.2,68.4,30.31,NE,45,9.0,16.0,85,0.00,,---,0.00,VWS V14.01,2013-08-26 00:30:00,
2013-08-25 20:31:00,72.8,68.0,30.31,NE,35,9.0,12.0,85,0.00,,---,0.00,VWS V14.00,2013-08-26 00:31:00,
2013-08-25 20:36:00,72.7,67.9,30.31,NE,48,8.0,12.0,85,0.00,,---,0.00,VWS V14.00,2013-08-26 00:36:00,
2013-08-25 20:41:00,72.6,67.8,30.31,NNE,30,8.0,14.0,85,0.00,,---,0.00,VWS V14.00,2013-08-26 00:41:00,
2013-08-25 20:46:00,72.5,67.4,30.31,NNE,33,9.0,14.0,84,0.00,,---,0.00,VWS V14.00,2013-08-26 00:46:00,
2013-08-25 20:51:00,72.4,68.0,30.31,NE,46,12.0,14.0,86,0.00,,---,0.00,VWS V14.00,2013-08-26 00:51:00,
2013-08-25 20:56:00,72.4,67.6,30.31,NE,40,8.0,15.0,85,0.00,,---,0.00,VWS V14.00,2013-08-26 00:56:00,
2013-08-25 21:00:00,72.5,68.1,30.31,NE,45,9.0,15.0,86,0.00,,---,0.00,VWS V14.01,2013-08-26 01:00:00,
2013-08-25 21:01:00,72.3,67.9,30.31,NE,41,5.0,13.0,86,0.00,,---,0.00,VWS V14.00,2013-08-26 01:01:00,
2013-08-25 21:06:00,72.2,67.4,30.31,NE,34,11.0,14.0,85,0.00,,---,0.00,VWS V14.00,2013-08-26 01:06:00,
2013-08-25 21:11:00,72.2,67.8,30.31,NE,42,9.0,14.0,86,0.00,,---,0.00,VWS V14.00,2013-08-26 01:11:00,
2013-08-25 21:16:00,72.0,67.2,30.31,NE,41,8.0,16.0,85,0.00,,---,0.00,VWS V14.00,2013-08-26 01:16:00,
2013-08-25 21:21:00,72.0,67.9,30.31,NE,40,11.0,16.0,87,0.00,,---,0.00,VWS V14.00,2013-08-26 01:21:00,
2013-08-25 21:26:00,72.0,67.9,30.31,NE,36,10.0,16.0,87,0.00,,---,0.00,VWS V14.00,2013-08-26 01:26:00,
2013-08-25 21:30:00,72.1,68.0,30.31,NE,45,10.0,17.0,87,0.00,,---,0.00,VWS V14.01,2013-08-26 01:30:00,
2013-08-25 21:31:00,72.0,67.9,30.31,NE,35,12.0,12.0,87,0.00,,---,0.00,VWS V14.00,2013-08-26 01:31:00,
2013-08-25 21:36:00,71.9,68.2,30.32,NNE,29,10.0,13.0,88,0.00,,---,0.00,VWS V14.00,2013-08-26 01:36:00,
2013-08-25 21:41:00,71.8,67.7,30.31,NNE,32,9.0,13.0,87,0.00,,---,0.00,VWS V14.00,2013-08-26 01:41:00,
2013-08-25 21:46:00,71.7,67.6,30.31,NNE,29,10.0,15.0,87,0.00,,---,0.00,VWS V14.00,2013-08-26 01:46:00,
2013-08-25 21:51:00,71.6,67.9,30.31,NE,46,7.0,15.0,88,0.00,,---,0.00,VWS V14.00,2013-08-26 01:51:00,
2013-08-25 21:56:00,71.5,67.8,30.30,NE,36,9.0,15.0,88,0.00,,---,0.00,VWS V14.00,2013-08-26 01:56:00,
2013-08-25 22:00:00,71.7,68.3,30.30,NE,45,9.0,15.0,89,0.00,,---,0.00,VWS V14.01,2013-08-26 02:00:00,
2013-08-25 22:01:00,71.4,68.0,30.30,NE,40,8.0,10.0,89,0.00,,---,0.00,VWS V14.00,2013-08-26 02:01:00,
2013-08-25 22:06:00,71.3,67.9,30.30,NNE,26,9.0,12.0,89,0.00,,---,0.00,VWS V14.00,2013-08-26 02:06:00,
2013-08-25 22:11:00,71.2,67.8,30.31,NNE,32,9.0,12.0,89,0.00,,---,0.00,VWS V14.00,2013-08-26 02:11:00,
2013-08-25 22:16:00,71.2,67.8,30.31,NE,38,9.0,15.0,89,0.00,,---,0.00,VWS V14.00,2013-08-26 02:16:00,
2013-08-25 22:21:00,71.1,67.7,30.31,NNE,30,10.0,15.0,89,0.00,,---,0.00,VWS V14.00,2013-08-26 02:21:00,
2013-08-25 22:26:00,71.1,67.7,30.31,NE,34,8.0,15.0,89,0.00,,---,0.00,VWS V14.00,2013-08-26 02:26:00,
2013-08-25 22:30:00,71.2,68.1,30.31,NE,45,9.0,15.0,90,0.00,,---,0.00,VWS V14.01,2013-08-26 02:30:00,
2013-08-25 22:31:00,71.0,67.9,30.32,NNE,26,10.0,11.0,90,0.00,,---,0.00,VWS V14.00,2013-08-26 02:31:00,
2013-08-25 22:36:00,70.9,67.5,30.31,NE,36,8.0,12.0,89,0.00,,---,0.00,VWS V14.00,2013-08-26 02:36:00,
2013-08-25 22:41:00,70.9,67.5,30.31,NNE,30,11.0,12.0,89,0.00,,---,0.00,VWS V14.00,2013-08-26 02:41:00,
2013-08-25 22:45:00,70.8,67.7,30.31,NNE,29,7.0,12.0,90,0.00,,---,0.00,VWS V14.00,2013-08-26 02:45:00,
2013-08-25 22:50:00,70.7,67.6,30.31,NE,37,6.0,13.0,90,0.00,,---,0.00,VWS V14.00,2013-08-26 02:50:00,
2013-08-25 22:55:00,70.7,67.6,30.31,NNE,30,9.0,13.0,90,0.00,,---,0.00,VWS V14.00,2013-08-26 02:55:00,
2013-08-25 23:00:00,70.6,67.8,30.32,NNE,21,6.0,11.0,91,0.00,,---,0.00,VWS V14.00,2013-08-26 03:00:00,
2013-08-25 23:05:00,70.6,67.5,30.31,NNE,33,8.0,12.0,90,0.00,,---,0.00,VWS V14.00,2013-08-26 03:05:00,
2013-08-25 23:10:00,70.5,68.1,30.32,NNE,20,9.0,12.0,92,0.00,,---,0.00,VWS V14.00,2013-08-26 03:10:00,
2013-08-25 23:15:00,70.5,67.8,30.31,NE,34,7.0,12.0,91,0.00,,---,0.00,VWS V14.00,2013-08-26 03:15:00,
2013-08-25 23:20:00,70.4,67.7,30.31,NNE,28,5.0,12.0,91,0.00,,---,0.00,VWS V14.00,2013-08-26 03:20:00,
2013-08-25 23:25:00,70.3,67.6,30.31,NE,47,4.0,12.0,91,0.00,,---,0.00,VWS V14.00,2013-08-26 03:25:00,
2013-08-25 23:30:00,70.2,67.8,30.31,NNE,30,5.0,8.0,92,0.00,,---,0.00,VWS V14.00,2013-08-26 03:30:00,
2013-08-25 23:35:00,70.1,67.7,30.31,NNE,17,5.0,10.0,92,0.00,,---,0.00,VWS V14.00,2013-08-26 03:35:00,
2013-08-25 23:40:00,70.1,68.0,30.31,North,11,9.0,10.0,93,0.00,,---,0.00,VWS V14.00,2013-08-26 03:40:00,
2013-08-25 23:45:00,70.1,68.0,30.31,NNE,17,6.0,10.0,93,0.00,,---,0.00,VWS V14.00,2013-08-26 03:45:00,
2013-08-25 23:50:00,70.1,68.0,30.30,NNE,29,8.0,10.0,93,0.00,,---,0.00,VWS V14.00,2013-08-26 03:50:00,
2013-08-25 23:55:00,70.0,67.6,30.31,NNE,30,6.0,10.0,92,0.00,,---,0.00,VWS V14.00,2013-08-26 03:55:00,